Location: *
(51.1248°S, 108.4023°W)
Time: 03:30:28
(UTC+00:00)

Meteor 1-27 Rocket - Pass Details

Date: 15 June 2021
Orbit: 830 x 910 km, 81.3° (Epoch: 31 July)

Event Time Altitude Azimuth Distance (km) Brightness Sun altitude
Rises 14:00:32 0° 317° (NW) 3,391 6.6 -11.1°
Reaches altitude 10° 14:03:12 10° 306° (NW) 2,472 5.8 -10.7°
Maximum altitude 14:08:08 31° 244° (WSW) 1,477 4.4 -10.0°
Drops below altitude 10° 14:13:12 10° 183° (S) 2,538 5.9 -9.3°
Sets 14:15:59 0° 172° (S) 3,495 6.7 -8.9°
